| time (UTC) | temp C | wind direction | speed KPH | gust KPH | rain 1hr cm | rain 24hr cm | rain mn cm | humidity % | barometer mb |
| 20260507151504 | 12 | 319 | 3.2 | 12.9 | 0.00 | 0.15 | 0.15 | 66 | 1012.6 |
| 20260507150003 | 12 | 111 | 3.2 | 9.7 | 0.00 | 0.15 | 0.15 | 68 | 1012.4 |
| 20260507144501 | 12 | 60 | 3.2 | 8.0 | 0.00 | 0.33 | 0.15 | 70 | 1012.8 |
| 20260507143104 | 12 | 276 | 1.6 | 6.4 | 0.00 | 0.33 | 0.15 | 73 | 1013.1 |
| 20260507141623 | 12 | 65 | 1.6 | 9.7 | 0.00 | 0.33 | 0.15 | 72 | 1013.1 |
| 20260507140058 | 12 | 60 | 4.8 | 12.9 | 0.00 | 0.33 | 0.15 | 75 | 1013.2 |
| 20260507134556 | 12 | 33 | 3.2 | 14.5 | 0.00 | 0.38 | 0.15 | 75 | 1013.2 |
| 20260507133055 | 13 | 65 | 8.0 | 12.9 | 0.00 | 0.38 | 0.15 | 75 | 1013.1 |
| 20260507131554 | 12 | 129 | 4.8 | 8.0 | 0.00 | 0.38 | 0.15 | 76 | 1013.1 |
| 20260507130105 | 12 | 11 | 4.8 | 11.3 | 0.00 | 0.38 | 0.15 | 75 | 1012.9 |
| 20260507124551 | 12 | 82 | 3.2 | 12.9 | 0.00 | 0.41 | 0.15 | 77 | 1013.1 |
| 20260507123051 | 12 | 58 | 3.2 | 11.3 | 0.00 | 0.41 | 0.15 | 80 | 1012.7 |
| 20260507121547 | 12 | 52 | 4.8 | 9.7 | 0.00 | 0.41 | 0.15 | 82 | 1012.6 |
| 20260507120047 | 12 | 86 | 1.6 | 11.3 | 0.00 | 0.41 | 0.15 | 84 | 1012.3 |
| 20260507114544 | 12 | 58 | 3.2 | 8.0 | 0.00 | 0.41 | 0.15 | 85 | 1012.6 |
| 20260507113041 | 11 | 101 | 3.2 | 8.0 | 0.00 | 0.41 | 0.15 | 86 | 1012.3 |
| 20260507111544 | 11 | 60 | 0.0 | 4.8 | 0.00 | 0.41 | 0.15 | 87 | 1012.2 |
| 20260507110040 | 11 | 42 | 0.0 | 4.8 | 0.00 | 0.41 | 0.15 | 86 | 1012.4 |
| 20260507104536 | -17 | 0.0 | 0.0 | 0.00 | 0.41 | 0.15 | 1012.1 | ||
| 20260507103035 | -17 | 0.0 | 0.0 | 0.00 | 0.41 | 0.15 | 1011.9 | ||
| 20260507101535 | -17 | 0.0 | 0.0 | 0.00 | 0.41 | 0.15 | 1011.7 | ||
| 20260507100032 | -17 | 0.0 | 0.0 | 0.00 | 0.41 | 0.15 | 1011.7 | ||
| 20260507094518 | -17 | 0.0 | 0.0 | 0.00 | 0.41 | 0.15 | 1012.0 | ||
| 20260507093019 | -17 | 0.0 | 0.0 | 0.00 | 0.41 | 0.15 | 1011.8 | ||
| 20260507091514 | 11 | 53 | 1.6 | 6.4 | 0.00 | 0.41 | 0.15 | 89 | 1011.7 |
| 20260507090016 | 12 | 58 | 0.0 | 8.0 | 0.00 | 0.41 | 0.15 | 91 | 1011.4 |
| 20260507084509 | 12 | 75 | 0.0 | 4.8 | 0.00 | 0.41 | 0.15 | 92 | 1011.2 |
| 20260507083009 | 12 | 55 | 0.0 | 4.8 | 0.00 | 0.41 | 0.15 | 92 | 1011.4 |
| 20260507081518 | 12 | 329 | 0.0 | 3.2 | 0.00 | 0.41 | 0.15 | 92 | 1011.6 |
| 20260507080006 | 12 | 68 | 0.0 | 3.2 | 0.00 | 0.41 | 0.15 | 92 | 1011.2 |
| 20260507074505 | 12 | 65 | 3.2 | 4.8 | 0.00 | 0.41 | 0.15 | 91 | 1010.9 |
| 20260507073007 | 12 | 9 | 0.0 | 8.0 | 0.00 | 0.41 | 0.15 | 91 | 1010.8 |
| 20260507071503 | 12 | 332 | 1.6 | 8.0 | 0.00 | 0.41 | 0.15 | 91 | 1010.8 |
| 20260507070004 | 12 | 65 | 4.8 | 12.9 | 0.00 | 0.41 | 0.15 | 91 | 1010.8 |
| 20260507064501 | 12 | 328 | 0.0 | 11.3 | 0.00 | 0.41 | 0.15 | 90 | 1010.6 |
| 20260507063058 | 13 | 357 | 6.4 | 17.7 | 0.00 | 0.41 | 0.15 | 90 | 1010.8 |
| 20260507061555 | 13 | 39 | 6.4 | 12.9 | 0.03 | 0.41 | 0.15 | 91 | 1010.8 |
| 20260507060057 | 13 | 68 | 6.4 | 16.1 | 0.03 | 0.41 | 0.15 | 92 | 1009.9 |
| 20260507054550 | 13 | 71 | 1.6 | 11.3 | 0.05 | 0.41 | 0.15 | 92 | 1009.1 |
| 20260507053052 | 14 | 82 | 6.4 | 11.3 | 0.05 | 0.41 | 0.15 | 91 | 1009.7 |
| 20260507051542 | 14 | 115 | 1.6 | 11.3 | 0.13 | 0.38 | 0.13 | 91 | 1010.6 |
| 20260507050040 | 15 | 63 | 8.0 | 19.3 | 0.13 | 0.38 | 0.13 | 91 | 1010.7 |
| 20260507044549 | 15 | 75 | 6.4 | 12.9 | 0.10 | 0.36 | 0.10 | 90 | 1010.3 |
| 20260507043031 | 16 | 82 | 1.6 | 17.7 | 0.10 | 0.36 | 0.10 | 88 | 1010.1 |
| 20260507041527 | 17 | 323 | 0.0 | 8.0 | 0.00 | 0.25 | 0.00 | 87 | 1010.0 |
| 20260507040031 | 17 | 39 | 3.2 | 8.0 | 0.00 | 0.25 | 0.00 | 87 | 1009.8 |
| 20260507034522 | 18 | 303 | 3.2 | 9.7 | 0.00 | 0.25 | 0.25 | 88 | 1009.8 |
| 20260507033023 | 18 | 273 | 0.0 | 0.0 | 0.00 | 0.25 | 0.25 | 89 | 1009.5 |
| 20260507031522 | 18 | 273 | 0.0 | 1.6 | 0.00 | 0.25 | 0.25 | 89 | 1009.4 |
| 20260507030023 | 17 | 273 | 0.0 | 0.0 | 0.00 | 0.25 | 0.25 | 89 | 1009.7 |
| 20260507024521 | 17 | 273 | 0.0 | 0.0 | 0.00 | 0.25 | 0.25 | 90 | 1009.6 |
| 20260507023022 | 17 | 273 | 0.0 | 1.6 | 0.00 | 0.25 | 0.25 | 89 | 1009.2 |
| 20260507021522 | 17 | 273 | 0.0 | 0.0 | 0.00 | 0.25 | 0.25 | 89 | 1008.8 |
| 20260507020024 | 17 | 273 | 0.0 | 0.0 | 0.00 | 0.25 | 0.25 | 89 | 1009.2 |
| 20260507014519 | 17 | 273 | 0.0 | 0.0 | 0.00 | 0.25 | 0.25 | 88 | 1009.2 |
| 20260507013019 | 17 | 273 | 0.0 | 0.0 | 0.00 | 0.25 | 0.25 | 88 | 1009.3 |
| 20260507011519 | 18 | 273 | 0.0 | 0.0 | 0.00 | 0.25 | 0.25 | 86 | 1009.5 |
| 20260507010025 | 18 | 273 | 0.0 | 1.6 | 0.00 | 0.25 | 0.25 | 86 | 1009.1 |
| 20260507004517 | 18 | 273 | 0.0 | 3.2 | 0.00 | 0.25 | 0.25 | 85 | 1008.9 |
| 20260507003021 | 18 | 233 | 0.0 | 3.2 | 0.00 | 0.25 | 0.25 | 85 | 1008.9 |
| 20260507001523 | 19 | 211 | 0.0 | 4.8 | 0.00 | 0.25 | 0.25 | 84 | 1008.9 |
| 20260507000016 | 20 | 177 | 0.0 | 3.2 | 0.00 | 0.25 | 0.25 | 82 | 1008.8 |
| 20260506234515 | 20 | 256 | 0.0 | 6.4 | 0.00 | 0.25 | 0.25 | 80 | 1008.8 |
| 20260506233014 | 20 | 249 | 1.6 | 8.0 | 0.00 | 0.25 | 0.25 | 79 | 1008.3 |
| 20260506231515 | 20 | 276 | 3.2 | 9.7 | 0.00 | 0.25 | 0.25 | 79 | 1008.4 |
| 20260506230015 | 20 | 271 | 0.0 | 9.7 | 0.00 | 0.25 | 0.25 | 78 | 1008.3 |
| 20260506224514 | 21 | 264 | 4.8 | 14.5 | 0.00 | 0.25 | 0.25 | 76 | 1008.5 |
| 20260506223013 | 21 | 358 | 1.6 | 9.7 | 0.00 | 0.25 | 0.25 | 75 | 1008.4 |
| 20260506221513 | 22 | 243 | 1.6 | 8.0 | 0.00 | 0.25 | 0.25 | 74 | 1008.5 |
| 20260506220012 | 21 | 248 | 3.2 | 11.3 | 0.00 | 0.25 | 0.25 | 73 | 1008.3 |
| 20260506214511 | 22 | 126 | 1.6 | 8.0 | 0.00 | 0.25 | 0.25 | 74 | 1008.1 |
| 20260506213011 | 22 | 319 | 0.0 | 22.5 | 0.00 | 0.25 | 0.25 | 73 | 1008.5 |
| 20260506211507 | 21 | 298 | 4.8 | 12.9 | 0.00 | 0.25 | 0.25 | 74 | 1008.0 |
| 20260506210006 | 21 | 271 | 4.8 | 17.7 | 0.00 | 0.25 | 0.25 | 75 | 1008.2 |
| 20260506204506 | 21 | 269 | 1.6 | 12.9 | 0.00 | 0.25 | 0.25 | 75 | 1008.1 |
| 20260506203005 | 20 | 323 | 3.2 | 14.5 | 0.00 | 0.25 | 0.25 | 77 | 1008.2 |
| 20260506201507 | 20 | 281 | 4.8 | 17.7 | 0.00 | 0.25 | 0.25 | 77 | 1008.3 |
| 20260506200004 | 20 | 281 | 1.6 | 11.3 | 0.00 | 0.25 | 0.25 | 79 | 1008.4 |
| 20260506194502 | 19 | 316 | 3.2 | 14.5 | 0.00 | 0.25 | 0.25 | 81 | 1008.3 |
| 20260506193101 | 18 | 333 | 3.2 | 19.3 | 0.00 | 0.25 | 0.25 | 82 | 1008.7 |
| 20260506191559 | 18 | 222 | 3.2 | 8.0 | 0.00 | 0.25 | 0.25 | 82 | 1008.8 |
| 20260506190059 | 18 | 290 | 3.2 | 14.5 | 0.00 | 0.25 | 0.25 | 80 | 1009.2 |
| 20260506184557 | 18 | 276 | 3.2 | 9.7 | 0.00 | 0.25 | 0.25 | 81 | 1009.6 |
| 20260506183105 | 18 | 267 | 3.2 | 16.1 | 0.00 | 0.25 | 0.25 | 82 | 1009.4 |
| 20260506181558 | 18 | 240 | 4.8 | 12.9 | 0.00 | 0.25 | 0.25 | 82 | 1009.5 |
| 20260506180055 | 18 | 210 | 4.8 | 14.5 | 0.00 | 0.25 | 0.25 | 82 | 1009.2 |
| 20260506174552 | 18 | 240 | 1.6 | 11.3 | 0.00 | 0.25 | 0.25 | 82 | 1009.6 |
| 20260506173053 | 18 | 295 | 4.8 | 16.1 | 0.00 | 0.25 | 0.25 | 83 | 1009.7 |
| 20260506171556 | 17 | 264 | 1.6 | 9.7 | 0.00 | 0.25 | 0.25 | 84 | 1010.0 |
| 20260506170049 | 17 | 261 | 3.2 | 12.9 | 0.00 | 0.25 | 0.25 | 85 | 1009.9 |
| 20260506164552 | 17 | 256 | 4.8 | 11.3 | 0.00 | 0.25 | 0.25 | 84 | 1010.0 |
| 20260506163049 | 17 | 256 | 4.8 | 16.1 | 0.00 | 0.25 | 0.25 | 87 | 1010.1 |
| 20260506161546 | 16 | 314 | 4.8 | 14.5 | 0.00 | 0.25 | 0.25 | 89 | 1010.6 |
| 20260506160045 | 16 | 236 | 6.4 | 14.5 | 0.00 | 0.25 | 0.25 | 90 | 1010.4 |
| 20260506154556 | 16 | 312 | 4.8 | 16.1 | 0.03 | 0.25 | 0.25 | 90 | 1010.4 |
| 20260506153042 | 16 | 287 | 6.4 | 17.7 | 0.05 | 0.25 | 0.25 | 90 | 1010.3 |